TimeMST,TemperatureF,Dew PointF,Humidity,Sea Level PressureIn,VisibilityMPH,Wind Direction,Wind SpeedMPH,Gust SpeedMPH,PrecipitationIn,Events,Conditions,WindDirDegrees,DateUTC
12:26 AM,39.2,21.2,49,29.68,10.0,North,12.7,27.6,N/A,,Clear,360,2013-03-04 07:26:00
12:53 AM,39.0,19.9,46,29.57,10.0,North,12.7,-,N/A,,Clear,360,2013-03-04 07:53:00
1:11 AM,41.0,19.4,42,29.68,10.0,North,18.4,35.7,N/A,,Clear,360,2013-03-04 08:11:00
1:36 AM,26.6,21.2,80,29.70,10.0,NNE,18.4,28.8,N/A,,Partly Cloudy,30,2013-03-04 08:36:00
1:48 AM,24.8,21.2,86,29.70,10.0,NNE,20.7,28.8,N/A,,Mostly Cloudy,20,2013-03-04 08:48:00
1:53 AM,25.0,21.9,88,29.67,10.0,NNE,15.0,28.8,N/A,,Mostly Cloudy,30,2013-03-04 08:53:00
2:05 AM,24.8,19.4,80,29.72,10.0,NNE,17.3,26.5,N/A,,Overcast,30,2013-03-04 09:05:00
2:27 AM,23.0,17.6,80,29.72,10.0,NNE,16.1,26.5,N/A,,Scattered Clouds,30,2013-03-04 09:27:00
2:53 AM,21.9,18.0,85,29.72,10.0,NE,11.5,21.9,N/A,,Clear,40,2013-03-04 09:53:00
3:01 AM,21.2,17.6,86,29.74,10.0,NNE,13.8,-,N/A,,Partly Cloudy,30,2013-03-04 10:01:00
3:53 AM,21.9,17.1,82,29.75,10.0,NE,9.2,18.4,N/A,,Mostly Cloudy,40,2013-03-04 10:53:00
4:53 AM,21.2,17.6,86,29.78,10.0,NNE,8.1,-,N/A,,Overcast,30,2013-03-04 11:53:00
5:53 AM,19.9,16.0,85,29.83,10.0,North,4.6,-,N/A,,Scattered Clouds,10,2013-03-04 12:53:00
6:53 AM,19.9,16.0,85,29.84,10.0,North,6.9,-,N/A,,Clear,360,2013-03-04 13:53:00
7:53 AM,24.1,18.0,77,29.83,10.0,NNE,10.4,-,N/A,,Mostly Cloudy,20,2013-03-04 14:53:00
8:29 AM,23.0,17.6,80,29.80,1.5,NNE,13.8,-,0.00,Snow,Light Snow,20,2013-03-04 15:29:00
8:53 AM,23.0,17.1,78,29.86,1.5,North,9.2,-,0.00,Snow,Light Snow,360,2013-03-04 15:53:00
9:23 AM,23.0,17.6,80,29.82,0.5,North,8.1,-,0.00,Snow,Snow,350,2013-03-04 16:23:00
9:53 AM,23.0,19.0,85,29.88,0.5,NNW,11.5,-,0.02,Fog-Snow,Snow,340,2013-03-04 16:53:00
10:16 AM,23.0,19.4,86,29.83,0.5,North,13.8,-,0.02,Fog-Snow,Snow,350,2013-03-04 17:16:00
10:30 AM,23.0,19.4,86,29.84,0.8,North,9.2,-,0.02,Snow,Light Snow,360,2013-03-04 17:30:00
10:37 AM,23.0,17.6,80,29.84,1.0,North,9.2,-,0.02,Snow,Light Snow,360,2013-03-04 17:37:00
10:53 AM,24.1,18.0,77,29.88,2.5,North,10.4,-,0.02,Snow,Light Snow,10,2013-03-04 17:53:00
10:55 AM,24.8,17.6,74,29.84,3.0,North,11.5,-,0.00,Snow,Light Snow,360,2013-03-04 17:55:00
11:03 AM,24.8,17.6,74,29.85,1.8,North,11.5,-,0.00,Snow,Light Snow,360,2013-03-04 18:03:00
11:09 AM,23.0,17.6,80,29.85,0.8,North,10.4,-,0.00,Snow,Light Snow,350,2013-03-04 18:09:00
11:27 AM,24.8,19.4,80,29.86,1.2,NW,13.8,19.6,0.01,Snow,Light Snow,320,2013-03-04 18:27:00
11:44 AM,24.8,17.6,74,29.87,2.5,NW,20.7,28.8,0.01,Snow,Light Snow,320,2013-03-04 18:44:00
11:53 AM,24.1,15.1,69,29.91,3.0,NW,25.3,33.4,0.01,Snow,Light Snow,320,2013-03-04 18:53:00
12:53 PM,24.1,12.0,60,29.93,10.0,NNW,21.9,36.8,0.00,,Mostly Cloudy,330,2013-03-04 19:53:00
1:53 PM,24.1,9.0,53,30.01,10.0,NW,26.5,42.6,N/A,,Partly Cloudy,320,2013-03-04 20:53:00
2:53 PM,26.1,6.1,43,30.09,10.0,NNW,27.6,40.3,N/A,,Mostly Cloudy,330,2013-03-04 21:53:00
3:53 PM,26.1,3.9,39,30.12,10.0,NW,19.6,39.1,N/A,,Clear,310,2013-03-04 22:53:00
4:53 PM,24.1,3.9,42,30.17,10.0,NW,25.3,33.4,N/A,,Clear,320,2013-03-04 23:53:00
5:53 PM,21.9,1.9,42,30.23,10.0,NW,18.4,31.1,N/A,,Clear,320,2013-03-05 00:53:00
6:53 PM,19.9,1.0,44,30.26,10.0,NW,17.3,27.6,N/A,,Clear,320,2013-03-05 01:53:00
7:53 PM,19.0,1.9,47,30.26,10.0,NW,17.3,29.9,N/A,,Clear,320,2013-03-05 02:53:00
8:53 PM,18.0,3.0,52,30.30,10.0,NW,15.0,21.9,N/A,,Clear,320,2013-03-05 03:53:00
9:53 PM,18.0,5.0,57,30.30,10.0,NNW,19.6,28.8,N/A,,Clear,330,2013-03-05 04:53:00
10:53 PM,18.0,5.0,57,30.30,10.0,NNW,20.7,28.8,N/A,,Clear,340,2013-03-05 05:53:00